Regional Weather Roundup
Issued by NWS

Home | Current Version | Previous Version | Graphics & Text | Print | Product List | Glossary On
Versions: 1 2 3 4 5 6 7 8 9 10 11 12 13 14 15 16 17 18 19 20 21 22 23 24 25 26 27 28 29 30 31 32 33 34 35 36 37 38 39 40 41 42 43 44 45 46 47 48 49 50
000
ASUS43 KBIS 210102
RWRND

NORTH DAKOTA REGIONAL WEATHER ROUNDUP
NATIONAL WEATHER SERVICE BISMARCK ND
700 PM CST MON FEB 20 2017

NOTE: "FAIR" INDICATES FEW OR NO CLOUDS BELOW 12,000 FEET WITH NO
SIGNIFICANT WEATHER AND/OR OBSTRUCTIONS TO VISIBILITY.


NDZ001>003-009>011-017-210200-
NORTHWEST NORTH DAKOTA

CITY           SKY/WX    TMP DP  RH WIND       PRES   REMARKS
WILLISTON      FAIR      34  29  82 CALM      29.68S
MINOT          FAIR      41  34  76 SW10      29.69R
MINOT AFB      CLEAR     35  32  87 SW9       29.68R
$$

NDZ018>021-031>035-040>046-210200-
SOUTHWEST NORTH DAKOTA

CITY           SKY/WX    TMP DP  RH WIND       PRES   REMARKS
BISMARCK       FAIR      38  33  82 S6        29.75R
DICKINSON      FAIR      37  25  61 S7        29.70S
GARRISON         N/A     35  31  85 S3        29.71R
HETTINGER ARPT CLEAR     39  27  62 CALM      29.75S
$$

NDZ004>008-012>016-024-026-027-054-210200-
NORTHEAST NORTH DAKOTA

CITY           SKY/WX    TMP DP  RH WIND       PRES   REMARKS
GRAND FORKS    PTCLDY    36  30  79 SW6       29.69R
GRND FRKS AFB  CLEAR     33  33  99 W6        29.70R
DEVILS LAKE    FOG       32  31  96 SW5       29.71R VSB 1/4
$$

NDZ022-023-025-028>030-036>039-047>053-210200-
SOUTHEAST NORTH DAKOTA

CITY           SKY/WX    TMP DP  RH WIND       PRES   REMARKS
FARGO          CLEAR     35  34  96 W8        29.73R
JAMESTOWN      FAIR      37  34  89 W3        29.73R
$$





USA.gov is the U.S. government's official web portal to all federal, state and local government web resources and services.